GFSFLT1_250_spd_000.txt.gz
Wind_Speed
32 34 32 32 38 41 41 41 45 46 48 50 42 55 54 58 61 68 74 76 81 81 82 89 83 82 89 90 96 94 86 89
40 35 35 40 37 41 44 51 55 49 52 54 58 55 46 47 57 63 71 82 88 89 89 93 98 93 91 99 98 99 98 96
50 40 45 49 55 55 56 57 52 50 57 55 60 53 56 57 53 55 53 78 90 96 100 97 99 107 103 101 109 108 108 110
54 52 55 57 58 57 60 58 67 65 63 69 59 57 54 57 58 63 60 57 80 93 104 106 107 107 114 115 112 113 117 116
55 57 56 58 59 61 63 64 66 67 77 77 83 74 61 55 59 65 68 65 67 61 98 104 117 119 119 121 123 123 122 123
56 58 57 58 61 64 66 70 72 70 76 85 84 84 71 64 57 60 62 69 72 71 68 82 107 114 128 131 130 131 134 133
55 56 56 61 65 66 67 70 73 77 85 83 88 88 79 74 69 64 63 66 69 73 72 74 79 91 109 126 138 141 141 141
53 51 57 60 64 67 69 72 76 83 87 92 90 89 89 77 73 65 65 66 71 71 73 75 76 77 86 92 113 129 145 151
61 62 62 66 70 68 70 73 81 85 96 97 95 92 93 79 74 68 68 71 71 71 72 76 75 76 80 85 90 102 120 120
67 70 72 78 80 79 78 81 87 92 101 101 102 97 92 80 73 68 68 68 70 70 69 73 77 78 78 79 82 88 96 106
74 79 79 83 86 89 87 86 91 97 108 107 111 100 97 82 74 69 67 67 69 69 68 69 72 76 80 83 85 87 89 93
83 85 86 89 94 95 95 95 94 102 111 116 114 107 97 85 76 71 68 67 68 68 69 70 73 76 80 82 84 86 87 89
79 84 90 93 99 100 102 102 102 107 113 118 122 104 93 83 76 72 69 67 67 67 68 70 73 75 78 80 83 86 88 89
88 91 96 98 103 104 106 107 107 112 120 123 117 98 89 80 75 72 70 68 68 67 67 69 72 75 77 80 81 81 83 83
94 95 96 99 103 105 105 109 111 115 118 122 112 97 87 78 72 69 68 67 68 68 70 71 72 72 73 74 74 73 73 74
92 92 95 103 105 107 107 110 113 117 122 121 107 94 82 74 70 69 68 67 68 70 70 70 68 69 70 67 66 65 65 65
98 101 102 111 112 112 112 115 116 120 124 117 105 90 79 74 70 69 69 69 70 70 67 66 67 66 62 61 59 58 58 58
101 104 106 111 118 117 117 118 117 121 123 113 99 85 77 72 70 69 69 69 69 66 64 63 60 59 57 55 53 53 54 55
108 111 109 117 121 123 122 123 121 121 122 105 92 79 74 71 69 69 69 68 64 62 60 57 55 53 51 49 49 50 50 50

GFSFLT1_250_spd_003.txt.gz
Wind_Speed
43 40 38 39 38 37 38 40 42 43 43 48 47 45 39 40 42 50 52 60 70 75 81 82 83 88 91 93 90 87 87 88
38 40 40 38 36 37 38 38 40 39 40 43 48 52 56 56 52 53 51 48 55 61 77 90 90 92 97 97 99 97 93 91
37 37 42 45 41 42 43 41 42 43 43 44 51 55 58 62 64 62 60 51 58 72 72 84 96 99 101 102 106 105 98 96
46 43 43 48 48 53 57 54 55 56 60 59 56 61 64 66 73 73 72 65 59 63 59 67 85 98 105 111 111 115 112 106
52 55 57 60 59 59 61 64 65 65 66 70 72 67 68 71 77 81 87 77 62 61 64 67 69 85 99 115 119 121 122 121
59 60 62 64 65 67 67 70 73 76 74 77 78 78 78 80 82 90 92 86 70 62 65 66 73 74 82 98 123 125 130 130
62 60 59 63 65 71 73 75 82 82 84 84 82 84 83 84 87 91 93 93 77 68 64 67 69 75 80 83 101 115 135 136
58 57 60 62 67 71 73 75 80 83 83 85 84 87 87 88 91 94 94 90 79 72 65 66 69 71 76 77 83 95 110 125
58 61 65 69 73 75 76 77 77 84 87 88 89 91 92 93 95 95 96 92 80 73 69 66 67 68 72 76 79 84 88 106
64 65 67 70 74 78 83 84 87 87 90 95 95 96 98 99 98 96 101 89 78 72 69 68 68 69 71 73 76 80 84 90
68 70 71 74 80 80 82 85 91 92 94 99 101 104 108 104 102 98 100 85 78 72 67 67 68 70 72 74 76 79 82 87
69 71 76 76 78 82 88 92 97 98 100 103 106 111 114 111 105 101 93 82 76 71 67 67 68 70 73 76 77 79 80 82
73 77 80 84 83 88 94 98 103 105 108 110 113 116 119 113 108 98 87 80 73 69 67 67 68 70 71 74 77 79 80 81
78 84 86 87 91 94 102 104 109 113 113 114 117 120 122 110 103 92 83 77 72 69 67 67 68 69 70 71 71 72 74 76
84 89 92 94 98 101 106 109 113 118 117 118 119 123 115 109 96 86 81 75 70 69 67 66 65 64 64 65 68 68 70 72
90 92 95 99 103 107 109 116 121 121 118 117 119 121 112 103 90 83 79 74 70 68 66 64 62 61 63 64 64 65 67 71
94 95 97 102 107 111 116 121 124 124 120 120 118 117 109 95 87 81 76 71 68 67 64 61 61 62 63 62 62 62 64 64
96 100 103 106 110 116 119 125 126 130 124 120 120 112 101 91 84 79 75 70 68 65 63 60 60 61 60 58 58 57 57 57
101 104 106 111 116 121 126 129 132 135 128 126 116 105 93 88 81 76 72 69 66 64 61 60 59 58 55 54 53 51 50 51

GFSFLT1_250_spd_006.txt.gz
Wind_Speed
43 43 43 43 42 44 47 48 47 48 49 52 49 47 45 46 44 44 49 38 43 46 47 51 55 57 71 83 85 85 87 91
42 44 45 44 44 47 49 53 54 55 56 58 60 58 57 57 54 49 53 51 55 58 53 51 55 56 65 79 89 91 93 96
44 42 43 44 42 45 50 53 54 56 59 60 63 65 63 64 65 62 60 63 65 65 65 63 60 59 63 73 85 92 97 102
42 44 44 43 45 47 50 53 54 54 57 61 61 64 68 69 71 72 68 68 68 70 73 68 66 66 67 71 81 94 98 107
43 47 50 52 52 55 57 57 57 57 56 63 68 68 68 73 77 80 82 78 80 79 76 75 75 72 74 73 75 83 98 109
51 52 55 58 58 59 58 61 61 62 63 65 68 75 76 81 86 89 91 92 92 88 88 78 76 76 75 74 77 81 85 95
53 59 61 63 62 59 62 63 65 68 69 75 78 77 84 89 95 99 98 100 98 97 97 88 85 85 81 76 75 79 86 92
56 58 62 61 61 63 64 66 69 73 78 81 81 84 88 95 101 102 101 98 98 99 98 95 89 85 83 79 74 74 80 87
53 57 58 58 61 66 71 72 73 76 78 80 83 88 94 100 106 105 104 103 103 103 102 98 94 89 80 76 73 72 74 80
62 63 65 66 69 72 77 83 84 85 86 89 91 97 101 103 110 109 109 108 106 107 102 96 90 83 77 74 71 70 70 74
67 69 71 73 77 79 82 84 86 90 91 94 98 103 107 110 116 114 113 110 111 107 100 92 84 77 74 71 69 69 68 72
74 76 77 79 78 82 85 85 88 92 95 99 105 110 115 118 122 119 119 114 111 103 93 86 81 76 71 69 68 67 68 70
80 82 85 87 86 85 86 89 93 97 99 104 110 117 119 125 126 119 117 112 106 98 87 85 79 74 70 67 66 67 69 71
86 87 88 91 95 95 95 95 96 99 104 112 115 122 127 130 129 115 113 108 100 89 85 83 77 72 68 67 65 66 67 69
89 91 93 96 100 98 100 101 103 109 116 118 119 129 133 133 120 114 109 103 93 86 84 79 74 69 67 65 65 65 65 67
94 97 100 103 103 104 106 105 113 117 123 124 129 133 139 125 115 109 103 97 89 86 80 74 69 65 66 65 64 66 66 67
97 99 103 106 107 106 107 112 118 122 126 130 135 135 135 114 109 105 99 92 87 80 75 69 65 64 65 64 63 62 63 63
99 103 105 107 110 113 118 122 126 131 134 136 136 136 117 109 106 101 94 88 82 75 71 66 65 65 62 61 60 58 57 56
105 108 110 114 119 121 125 130 135 136 139 140 139 121 113 108 102 94 89 83 76 72 68 65 64 62 58 57 55 53 52 51

GFSFLT1_250_spd_009.txt.gz
Wind_Speed
33 34 35 36 36 37 36 34 36 36 38 37 36 38 40 40 42 45 50 54 59 61 62 63 61 57 54 57 60 62 64 73
28 31 33 36 40 40 36 37 36 39 40 40 42 42 47 50 53 53 54 57 62 65 68 67 68 66 64 63 63 65 71 72
30 32 36 41 41 42 39 41 40 43 46 50 51 50 54 57 58 58 60 63 67 68 73 76 73 72 72 71 71 67 72 79
36 39 39 43 47 48 48 44 46 47 50 54 57 57 59 63 63 62 63 67 72 76 76 81 83 82 80 79 77 76 73 75
42 43 44 46 50 52 53 54 57 59 61 60 63 65 65 66 70 72 72 76 81 85 85 89 92 92 87 84 81 83 82 78
47 48 49 50 53 57 58 61 66 68 67 65 65 64 69 73 75 77 81 87 88 91 98 97 100 98 88 85 81 82 83 82
50 54 55 56 56 60 66 68 69 71 73 73 73 72 75 77 80 81 91 94 95 98 107 104 110 101 93 86 83 80 78 79
49 52 53 50 56 63 65 66 68 73 74 75 78 79 82 82 84 91 98 103 106 108 116 114 119 103 96 92 86 83 76 70
51 51 53 55 60 64 67 68 71 76 82 84 86 87 88 89 89 95 102 106 113 114 118 122 116 100 95 92 87 81 72 68
57 58 62 65 69 72 75 77 82 83 86 90 93 96 96 96 95 100 106 115 117 117 121 122 108 98 94 90 85 76 69 68
72 73 74 75 78 80 81 87 87 86 89 94 97 99 102 103 107 109 115 121 122 121 118 115 101 97 91 85 77 73 70 67
75 80 82 83 82 84 85 90 94 93 96 100 105 107 107 112 114 116 121 124 123 120 117 111 100 94 86 78 74 72 68 66
81 82 84 84 86 88 93 97 101 102 104 107 109 112 114 118 121 125 129 128 124 116 112 103 97 88 79 75 72 69 66 63
85 85 87 90 92 96 100 103 107 110 112 111 113 116 122 124 127 128 129 126 115 109 102 96 87 79 76 72 67 64 62 61
88 93 96 98 101 104 108 111 114 117 118 118 120 123 126 128 132 130 120 111 105 100 95 85 78 76 72 68 63 60 59 59
94 96 98 103 108 112 115 117 119 122 125 128 130 132 131 128 120 114 109 105 98 93 82 79 78 72 67 63 61 59 59 60
98 101 105 108 113 117 120 122 125 131 131 130 129 122 118 114 110 105 98 91 86 79 75 75 70 67 64 62 58 57 58 57
103 107 111 116 122 126 129 131 130 128 129 127 123 119 114 108 99 93 92 85 78 74 74 70 66 65 63 59 57 56 55 55
113 119 122 124 129 131 129 127 123 121 122 118 112 106 99 92 91 87 81 76 74 75 73 67 63 63 60 57 55 54 52 50

GFSFLT1_250_spd_012.txt.gz
Wind_Speed
21 23 28 28 30 31 32 32 31 34 34 36 40 44 45 44 45 46 46 49 49 47 48 50 52 57 59 60 62 64 63 60
20 25 30 32 33 36 35 38 37 36 39 41 44 45 44 44 44 44 45 49 52 51 51 52 57 62 64 66 71 72 74 71
26 30 33 37 39 42 42 41 39 38 40 44 44 46 48 51 53 55 56 57 58 58 60 60 65 71 73 75 79 81 81 80
34 36 40 45 46 48 48 47 44 43 48 50 51 55 60 63 64 65 66 64 66 68 70 73 74 74 79 82 86 89 90 88
40 45 51 54 54 55 56 56 57 54 60 61 60 62 68 69 68 69 71 70 72 74 74 77 79 83 83 87 92 93 93 95
39 46 51 53 55 58 61 66 68 67 68 71 70 71 72 73 76 77 80 81 83 85 87 88 89 92 93 96 98 99 99 98
43 49 52 55 58 62 67 70 69 72 73 73 75 78 77 79 81 84 88 89 92 95 98 99 99 101 102 105 104 104 102 95
50 52 56 59 61 65 68 69 70 71 73 76 79 81 84 85 88 92 97 97 98 101 103 105 109 110 113 113 112 110 99 91
55 59 63 65 68 70 71 72 74 75 79 81 84 89 94 98 99 102 104 107 106 108 110 113 117 121 121 118 113 101 93 89
65 69 71 73 72 73 76 78 83 86 88 90 93 98 103 106 107 109 112 114 116 118 122 126 123 120 115 110 102 97 93 88
68 68 70 72 76 80 85 89 90 91 94 97 100 104 108 113 115 118 121 123 124 126 125 120 122 114 109 101 97 92 87 82
74 77 79 82 84 87 90 95 99 102 103 105 108 112 118 121 125 127 127 125 120 119 118 116 112 107 101 97 89 84 79 74
79 82 85 87 90 94 99 102 104 108 111 115 118 123 127 128 128 126 123 121 115 113 110 104 101 96 90 86 82 78 71 71
83 86 89 93 96 100 104 108 109 114 119 124 126 126 125 125 127 124 117 112 108 103 97 93 88 85 84 79 73 69 69 66
89 91 93 98 102 105 106 107 115 120 124 123 123 121 122 121 113 108 104 101 95 89 85 84 81 76 73 70 67 67 65 62
94 97 100 104 107 109 112 116 120 121 119 117 116 116 113 106 101 97 94 91 90 87 83 77 77 73 70 68 66 63 60 59
101 104 108 111 112 114 116 119 116 115 115 114 111 108 101 98 93 87 82 78 75 72 74 70 69 68 65 62 58 57 57 57
106 107 108 110 114 118 120 116 113 111 108 105 102 100 97 95 90 87 82 78 76 74 71 69 68 64 61 58 55 54 56 54
112 115 117 117 122 120 114 111 107 103 99 98 97 95 93 90 84 82 79 79 75 72 72 67 63 60 57 56 54 56 53 49

GFSFLT1_250_spd_015.txt.gz
Wind_Speed
30 32 31 34 35 33 36 38 39 39 39 40 40 42 45 46 47 47 50 52 52 50 51 50 51 52 55 57 59 61 63 65
33 34 33 36 38 41 41 40 38 39 41 46 50 53 55 54 55 53 54 56 55 56 58 59 59 59 62 66 66 67 68 69
35 37 38 41 43 45 47 45 44 44 47 52 57 59 60 61 62 60 59 61 63 63 65 65 66 68 70 72 74 76 78 80
41 41 46 50 52 54 55 55 56 57 57 60 61 63 62 64 67 68 68 69 70 71 74 75 78 80 81 80 81 85 88 89
44 45 48 50 54 57 60 61 64 67 67 66 65 66 67 68 69 74 79 80 80 82 85 87 88 89 89 89 90 91 93 96
45 48 49 52 56 59 60 63 66 68 70 70 71 74 76 79 82 83 86 88 89 91 94 96 97 98 99 100 101 102 103 105
42 45 49 52 57 60 63 65 66 69 71 75 77 80 82 84 88 92 95 97 98 99 101 104 106 109 109 109 109 106 104 104
46 50 53 57 60 61 63 67 70 73 78 82 85 87 90 94 97 99 101 103 105 107 110 113 113 112 110 106 104 103 99 98
51 55 57 61 66 69 72 75 77 81 84 87 93 96 99 102 106 109 112 111 112 114 112 110 108 107 105 102 97 95 94 92
58 61 64 70 73 77 80 84 87 91 93 94 98 101 104 107 112 114 117 117 115 110 106 103 102 101 96 94 91 89 87 87
64 69 73 79 82 85 88 92 95 96 96 100 103 108 112 116 119 121 121 116 112 109 105 101 95 92 90 88 85 82 80 79
72 78 84 86 88 89 91 95 96 98 106 110 114 115 118 119 122 119 117 114 109 102 95 92 90 88 87 86 83 83 82 80
80 84 86 87 88 91 99 102 106 111 116 118 120 119 118 120 115 111 111 106 100 93 91 90 86 84 83 82 78 76 75 74
81 82 84 89 92 99 105 109 113 117 120 122 123 118 119 113 108 105 103 97 92 90 88 86 84 83 82 79 77 75 77 77
82 86 90 97 103 105 110 114 118 121 124 126 124 122 112 105 103 99 96 93 91 89 87 82 79 78 77 75 74 74 74 74
87 96 99 105 109 112 118 123 125 129 131 128 123 115 108 100 98 95 93 92 91 88 87 85 82 78 76 74 72 72 74 74
97 102 109 112 116 121 126 129 131 130 124 121 111 107 102 97 94 92 89 87 85 83 80 78 76 75 72 69 68 67 67 64
106 111 116 121 125 126 127 130 129 123 118 110 105 100 97 95 93 91 89 88 86 81 77 73 70 68 65 63 63 62 59 55
108 115 120 128 130 130 131 132 127 121 113 106 101 97 95 92 92 89 86 83 79 75 70 66 65 64 61 60 58 55 53 50